Temperature
17 17 17 17 17 17 17 17 17 17 17 17 17 17 17 17 17 17 17 17 17 17 17 18 18 17 18 18 18 18 18 18 18 18 18 18 18 18 18 18 18 18 18
16 17 17 17 17 17 17 17 17 17 17 17 17 17 17 17 17 17 17 17 17 17 17 17 17 17 17 17 17 18 18 18 18 18 18 18 18 18 18 18 18 18 18
16 16 17 17 17 17 17 17 17 17 17 17 17 17 17 17 17 17 17 17 17 17 17 17 17 17 17 17 17 17 17 18 18 18 18 17 17 18 18 18 18 18 18
16 16 16 17 17 17 17 17 17 17 16 16 16 17 17 17 17 17 17 17 17 17 17 17 17 17 17 17 17 17 17 17 18 17 17 17 17 18 18 18 18 18 18
16 16 16 17 17 17 17 17 17 16 16 16 16 16 16 16 16 16 17 17 17 17 17 17 17 17 17 17 17 17 17 17 17 17 17 17 17 18 18 18 18 18 18
16 16 16 17 17 16 16 16 16 16 16 16 16 16 16 16 16 16 17 17 17 17 17 17 17 17 17 17 17 17 17 17 17 17 17 17 17 17 17 18 18 18 18
16 16 16 16 16 16 16 16 16 16 16 16 16 16 16 16 16 16 16 16 16 16 16 16 16 16 17 17 17 17 17 17 17 17 17 17 17 17 17 17 17 17 17
16 16 16 16 16 16 16 16 16 16 16 16 16 16 16 16 16 16 16 16 16 16 16 16 16 16 16 17 16 17 17 17 16 16 16 17 17 17 17 17 17 17 17
16 16 16 16 16 16 16 16 16 16 16 16 16 16 16 16 16 16 16 16 16 16 16 16 16 16 16 16 16 16 16 17 16 16 16 16 17 17 17 17 17 17 17
16 16 16 16 16 16 16 16 16 16 16 16 16 16 16 16 16 16 16 16 16 16 16 16 16 16 16 16 16 16 16 16 16 16 16 16 16 16 16 16 16 17 17
16 16 16 16 16 16 16 16 16 16 16 16 16 16 16 15 15 15 16 16 16 16 16 16 16 16 16 16 16 16 16 16 16 16 16 16 16 16 16 16 16 16 16
16 16 16 16 16 16 16 16 16 16 15 15 15 15 15 15 15 15 16 16 16 16 16 16 16 16 15 15 16 16 15 15 16 15 16 16 16 16 16 16 16 16 16
16 16 16 16 16 16 16 16 16 15 15 15 15 15 15 16 16 15 15 15 15 15 15 15 15 15 15 15 15 15 15 15 15 15 15 16 16 16 16 16 16 16 16
16 16 16 16 16 16 16 16 16 16 15 15 15 15 15 15 15 15 15 15 15 15 15 15 15 15 15 15 15 15 15 15 15 15 15 15 16 16 16 16 16 16 16
16 16 16 16 16 16 16 16 16 15 15 15 15 15 15 15 15 15 15 15 15 15 15 15 15 15 15 15 15 15 15 15 15 15 15 15 16 16 15 15 15 15 15
16 16 16 16 16 16 16 16 16 15 15 15 15 15 15 15 15 15 15 15 15 15 15 15 15 15 15 15 15 15 15 15 15 15 15 15 15 16 15 15 15 15 15
16 16 16 16 16 16 16 16 15 15 15 15 15 15 15 15 15 15 15 15 15 15 15 15 15 15 15 15 15 15 15 15 14 15 15 15 15 15 15 15 15 15 15
16 16 16 16 16 16 15 15 15 15 15 15 15 15 15 15 15 15 15 15 15 15 15 15 14 15 15 15 15 15 15 15 14 14 14 14 15 14 15 15 15 15 15
16 16 16 16 16 15 15 15 15 15 15 15 15 15 15 15 15 15 15 15 15 15 15 14 14 15 14 14 14 14 14 14 14 14 14 14 14 14 14 14 15 15 15
16 16 16 15 15 15 15 15 15 15 15 15 15 15 15 15 15 15 15 15 15 15 14 14 14 14 14 14 14 14 14 14 14 14 14 14 14 14 14 14 14 14 15
16 16 16 15 15 15 15 15 15 15 15 15 15 15 15 15 15 15 15 15 15 15 14 14 14 14 14 14 14 14 14 14 14 14 14 14 14 14 14 14 14 14 14
16 16 16 15 15 15 15 15 15 15 15 15 15 15 15 15 15 15 15 15 15 15 14 14 14 14 14 14 14 15 15 14 14 14 14 14 14 14 14 14 14 14 14
16 16 16 15 15 15 15 15 15 15 15 15 15 15 15 15 15 15 15 15 15 15 14 14 14 14 14 14 15 15 16 16 14 14 14 14 13 13 13 13 13 13 13
16 16 16 15 15 15 15 15 15 15 15 15 15 15 15 15 15 15 15 15 15 15 15 14 14 14 14 14 14 15 15 15 15 14 14 13 13 13 13 13 13 13 13
16 16 16 16 15 15 15 15 15 15 15 15 15 15 15 15 15 15 15 15 15 15 15 15 14 14 14 14 14 14 14 14 15 15 14 14 13 13 13 13 13 13 13
16 16 16 16 15 15 15 15 15 15 15 15 15 15 15 15 15 15 15 15 15 15 15 14 14 15 15 15 14 14 14 14 14 14 14 14 13 13 13 13 13 13 13
Wind_Speed
2 3 4 4 5 6 7 8 8 8 8 8 8 8 7 7 8 9 9 9 9 9 9 10 9 9 10 11 11 11 11 11 10 9 9 8 8 7 7 5 3 6 8
3 4 5 5 6 7 7 8 8 8 8 8 8 7 7 8 9 9 9 9 9 9 10 10 10 10 11 11 11 11 11 11 10 9 7 8 8 7 6 6 5 6 6
4 4 6 6 7 7 8 8 8 8 8 8 7 7 7 8 9 9 9 9 9 9 9 10 10 11 11 11 11 11 11 10 9 7 3 5 7 7 6 6 6 6 6
4 5 6 7 8 8 8 7 7 7 8 7 8 8 8 8 8 9 9 9 9 9 9 9 10 10 10 11 10 11 10 9 7 3 4 6 6 9 7 6 6 6 6
5 6 7 7 8 8 7 7 7 7 7 8 8 8 9 9 9 8 9 9 9 9 9 10 10 10 10 10 9 9 9 7 4 4 7 6 7 8 8 7 7 7 6
6 7 8 7 8 8 7 7 7 7 7 8 8 8 9 9 9 8 9 9 9 9 10 10 10 9 9 9 9 8 8 5 3 6 6 6 7 8 8 8 8 7 7
6 7 8 8 7 7 7 8 8 8 8 8 8 9 9 9 9 9 9 9 9 10 10 10 9 9 9 9 8 8 7 5 6 6 6 7 9 9 8 9 9 9 8
6 6 8 8 7 7 7 7 8 9 9 9 9 8 8 9 9 9 9 9 9 9 9 9 9 9 9 9 8 9 7 5 6 6 7 8 9 8 8 8 9 9 9
6 6 6 6 7 7 7 7 8 9 9 9 9 9 9 9 9 10 10 9 9 9 9 9 10 10 9 9 9 8 7 5 6 6 7 8 9 9 8 8 9 9 9
5 6 6 6 5 5 7 9 9 9 9 9 9 8 8 8 9 8 9 10 9 9 9 9 10 10 10 9 9 8 5 3 7 7 7 9 10 9 10 10 10 10 9
5 5 5 5 5 6 6 8 8 8 8 7 9 7 4 6 7 7 10 9 9 9 9 9 10 9 9 10 9 6 4 5 7 7 8 10 9 9 10 10 10 10 9
5 4 3 4 5 6 6 6 6 7 7 7 7 7 6 6 6 7 9 9 9 9 9 9 8 6 4 7 7 5 6 7 7 7 9 11 10 10 10 10 10 9 9
4 3 3 3 5 5 5 5 4 5 5 6 6 6 6 6 5 5 5 6 7 6 7 7 5 6 7 7 6 7 7 7 7 8 11 11 11 10 10 10 10 10 10
4 3 3 3 4 4 5 4 3 4 4 4 4 5 4 4 4 5 4 5 5 5 5 5 5 6 7 8 8 8 8 7 8 8 11 13 12 11 10 10 11 10 10
4 3 3 3 3 4 4 3 3 3 3 4 4 3 4 4 4 4 4 4 5 5 5 4 6 6 7 8 8 9 8 8 9 8 9 13 13 13 12 11 11 10 10
4 4 4 4 3 3 3 3 3 3 3 4 3 3 4 4 4 3 4 4 4 4 4 4 6 6 6 7 8 8 8 8 8 8 8 10 13 14 13 12 11 10 10
5 4 5 3 3 3 3 3 4 3 3 3 3 3 4 4 4 4 4 4 4 5 5 5 6 6 6 6 7 7 7 7 7 8 8 7 9 13 13 13 12 11 11
5 5 5 4 3 3 3 3 3 3 3 3 3 3 3 4 4 4 3 3 4 4 4 4 4 5 5 5 6 6 6 6 8 8 8 8 8 8 11 13 12 12 11
6 6 6 4 4 3 2 3 2 3 3 3 3 3 3 4 3 3 3 3 4 3 3 3 4 4 5 5 5 5 6 6 6 7 8 8 8 8 8 10 12 12 12
7 6 6 4 3 3 2 2 2 2 2 3 3 2 3 3 3 3 3 3 3 3 3 4 4 4 4 4 5 6 5 5 5 6 7 7 8 9 9 8 8 10 13
7 7 6 5 4 3 2 2 2 2 1 2 2 2 2 2 3 3 3 3 2 3 3 4 3 4 3 3 3 4 5 5 6 5 5 6 7 8 7 8 8 7 8
7 7 6 5 4 3 2 1 1 1 1 1 1 2 2 2 3 3 3 3 3 3 3 3 2 2 2 1 1 1 2 3 3 4 4 5 6 6 7 8 8 8 8
8 7 6 5 4 3 3 2 2 2 2 2 2 1 2 2 3 3 3 3 3 2 2 2 2 1 1 1 1 1 0 1 2 3 4 4 5 5 5 6 8 9 9
8 7 7 6 5 4 3 3 3 2 1 1 1 2 2 3 3 2 2 3 2 2 2 2 2 1 0 1 1 1 2 2 1 2 3 4 5 5 5 5 6 7 8
8 8 7 7 5 4 4 3 3 2 1 1 1 2 2 3 2 2 2 2 2 2 2 2 2 1 1 1 1 1 2 1 0 0 2 2 3 4 4 4 5 6 7
8 8 7 7 6 5 4 4 4 3 3 2 2 2 2 2 2 2 2 2 2 2 2 2 2 2 2 2 1 1 1 1 1 0 1 2 2 3 3 3 4 4 5
Wind_Direction
64 54 63 69 67 72 71 71 75 76 78 81 81 84 86 90 90 86 87 85 81 77 76 76 83 79 82 82 81 80 78 76 76 78 81 81 81 81 81 84 94 102 89
73 70 78 71 73 73 76 72 70 75 77 80 83 85 88 91 91 89 86 86 83 78 75 76 80 79 82 81 81 79 77 76 74 74 81 91 86 79 79 74 56 78 90
80 78 85 76 76 76 76 72 72 75 78 79 82 82 84 90 91 89 86 86 85 82 80 80 81 80 79 77 79 78 74 70 72 74 83 87 89 81 78 78 78 85 95
84 78 73 76 77 77 74 71 69 75 79 80 80 81 83 88 89 89 86 85 85 86 87 86 86 84 80 77 76 77 75 69 65 60 71 68 74 79 75 74 77 85 89
85 80 80 73 74 75 70 68 69 75 80 83 81 80 81 84 87 86 85 87 87 88 88 88 87 84 82 80 79 77 76 70 64 55 63 63 67 75 73 73 75 79 83
89 85 82 71 69 69 68 66 68 78 82 83 80 79 81 83 83 84 82 85 87 90 90 86 85 84 81 81 80 78 75 66 64 63 66 68 69 72 72 74 75 76 78
89 85 87 74 67 69 71 68 68 74 79 81 79 79 81 81 80 80 79 81 84 86 86 84 83 81 81 81 78 75 69 53 65 69 67 68 68 66 71 77 74 71 72
90 86 90 89 76 75 77 72 73 74 76 78 82 83 82 83 82 79 79 80 82 85 87 85 83 80 80 78 76 75 63 27 77 71 68 68 67 65 73 78 76 74 74
91 88 87 90 100 107 92 75 75 73 75 77 82 81 81 82 81 80 79 78 79 81 85 86 85 84 82 77 76 75 68 35 60 64 67 65 65 65 72 76 76 74 75
99 90 83 81 83 93 98 85 77 75 76 79 80 79 86 95 93 87 83 76 77 82 86 88 86 84 82 78 74 72 67 53 54 62 61 67 65 67 69 71 73 70 71
102 90 82 79 83 81 85 90 91 88 77 87 88 86 92 87 86 90 73 74 77 81 85 85 83 84 92 91 79 69 61 61 60 56 57 61 65 67 65 68 70 71 71
118 104 88 85 86 86 86 86 79 80 74 69 68 70 71 74 73 78 92 84 82 86 92 85 93 106 99 89 88 79 65 64 61 61 60 56 61 67 67 66 68 72 70
128 112 93 90 87 87 91 82 74 79 78 71 65 71 72 77 85 82 90 98 93 93 87 93 96 78 78 76 73 72 63 60 58 58 58 57 61 66 66 67 68 71 71
135 124 113 108 104 94 85 84 81 80 76 73 67 67 71 74 77 80 79 76 77 79 76 73 73 77 80 81 78 76 72 68 64 63 57 55 59 63 66 67 69 69 69
146 145 124 109 96 92 85 85 84 76 70 78 69 68 75 81 86 88 87 79 76 79 84 78 77 74 75 75 74 72 71 70 72 72 68 58 55 58 62 67 69 69 69
159 147 127 113 102 91 90 86 78 75 80 66 67 70 75 83 91 92 93 84 81 80 78 78 83 82 78 76 73 70 69 71 72 71 72 71 61 55 55 60 62 63 65
157 145 126 114 105 91 79 75 75 70 75 72 67 66 76 80 96 95 92 96 92 91 93 89 87 85 85 83 77 71 70 67 70 67 65 65 70 65 55 53 52 56 62
158 146 133 130 115 95 90 83 77 73 68 70 66 56 75 85 88 91 91 94 100 97 97 97 97 94 87 81 76 70 73 71 67 65 65 66 61 63 63 53 48 52 59
160 151 144 136 125 108 99 94 77 77 72 70 70 58 64 78 83 93 90 94 106 105 102 105 101 95 91 86 84 75 69 68 66 62 60 60 61 56 60 63 58 60 59
162 156 148 142 136 122 121 120 104 83 81 75 69 64 54 67 77 91 105 110 110 113 108 106 107 96 90 93 92 84 76 75 68 59 58 59 57 54 49 49 59 70 63
167 168 161 158 154 146 139 152 129 114 107 87 75 73 73 77 87 93 98 106 109 106 112 115 114 110 103 109 117 106 91 74 68 64 57 58 60 53 52 53 50 57 69
169 171 166 168 169 163 156 150 146 126 121 93 93 101 92 95 93 95 97 106 112 111 118 115 119 118 109 109 171 162 144 116 76 66 65 57 58 59 52 52 57 57 57
176 176 177 182 176 171 166 158 155 134 144 132 126 107 86 87 84 90 98 112 113 121 118 117 133 147 131 111 17 321 250 97 113 87 66 66 61 56 54 52 56 54 56
182 185 188 187 185 180 184 195 191 187 157 139 135 123 123 104 91 91 100 105 112 108 117 123 113 120 112 123 111 28 21 62 168 128 108 81 67 57 53 55 58 55 53
181 186 192 187 187 187 193 194 206 200 171 138 127 135 132 109 100 103 101 105 108 111 111 104 103 82 72 50 81 106 92 95 336 99 121 113 96 73 58 53 55 53 48
180 184 187 187 188 190 198 200 204 193 185 171 168 152 148 131 124 120 118 120 119 114 113 102 100 89 60 60 54 83 98 83 86 106 129 128 106 86 75 61 54 54 50
Height
1535 1534 1533 1533 1533 1533 1533 1532 1532 1532 1531 1531 1530 1530 1530 1530 1530 1529 1530 1530 1530 1530 1530 1530 1530 1530 1531 1531 1531 1531 1531 1531 1531 1531 1531 1531 1531 1532 1531 1531 1532 1532 1532
1535 1535 1534 1534 1534 1534 1533 1533 1533 1533 1532 1532 1532 1532 1531 1531 1531 1531 1531 1531 1531 1531 1531 1531 1531 1531 1532 1532 1532 1532 1532 1532 1532 1532 1533 1533 1533 1533 1533 1532 1532 1533 1532
1536 1536 1535 1535 1535 1535 1535 1534 1534 1534 1533 1533 1533 1533 1532 1532 1532 1532 1532 1532 1532 1532 1532 1533 1533 1533 1533 1533 1533 1533 1533 1534 1534 1534 1534 1535 1534 1533 1533 1533 1533 1533 1533
1537 1537 1537 1536 1536 1536 1536 1536 1535 1535 1534 1534 1534 1534 1534 1534 1534 1534 1534 1534 1533 1533 1534 1534 1534 1534 1534 1534 1535 1535 1535 1535 1535 1535 1536 1536 1536 1534 1534 1534 1534 1534 1534
1538 1538 1538 1537 1537 1537 1537 1537 1536 1536 1536 1535 1535 1535 1535 1535 1535 1535 1535 1535 1535 1535 1535 1535 1535 1535 1536 1536 1536 1536 1536 1536 1536 1536 1536 1536 1536 1535 1535 1534 1534 1534 1534
1539 1539 1539 1539 1538 1538 1538 1538 1538 1537 1537 1537 1537 1537 1537 1537 1537 1537 1537 1536 1536 1536 1536 1536 1536 1536 1537 1537 1537 1537 1537 1537 1537 1537 1537 1537 1536 1536 1535 1535 1535 1535 1535
1540 1540 1540 1540 1539 1539 1540 1539 1539 1539 1538 1538 1538 1538 1538 1538 1538 1538 1538 1538 1537 1537 1537 1537 1537 1537 1537 1538 1538 1538 1538 1538 1539 1538 1538 1538 1537 1536 1536 1536 1536 1536 1536
1541 1542 1541 1541 1541 1541 1541 1541 1540 1540 1540 1539 1539 1539 1539 1539 1539 1539 1539 1539 1539 1539 1538 1539 1539 1538 1539 1538 1539 1539 1539 1539 1540 1540 1539 1538 1537 1537 1537 1537 1537 1537 1537
1542 1543 1543 1543 1543 1542 1542 1542 1542 1542 1541 1541 1541 1541 1541 1541 1541 1541 1541 1540 1540 1540 1540 1540 1540 1539 1539 1539 1539 1540 1540 1540 1541 1541 1541 1540 1538 1538 1538 1538 1538 1538 1538
1544 1544 1544 1544 1545 1545 1545 1544 1544 1544 1543 1543 1543 1543 1543 1543 1543 1542 1542 1542 1541 1541 1541 1541 1541 1540 1540 1540 1541 1541 1541 1541 1542 1542 1541 1541 1540 1539 1539 1539 1539 1539 1539
1545 1545 1545 1546 1546 1546 1547 1546 1546 1546 1545 1545 1545 1545 1545 1546 1545 1545 1544 1543 1543 1542 1542 1542 1542 1542 1542 1542 1542 1542 1542 1543 1543 1543 1542 1541 1541 1541 1540 1540 1540 1540 1539
1546 1546 1547 1547 1547 1548 1548 1548 1548 1548 1548 1548 1547 1547 1547 1547 1546 1546 1545 1544 1544 1544 1543 1543 1543 1543 1544 1544 1544 1543 1544 1544 1544 1544 1543 1542 1542 1542 1541 1541 1541 1540 1540
1547 1547 1548 1548 1549 1549 1549 1550 1550 1550 1549 1549 1549 1549 1548 1548 1548 1547 1547 1547 1546 1546 1545 1545 1546 1546 1546 1545 1545 1545 1545 1545 1545 1545 1544 1543 1543 1543 1542 1542 1542 1541 1541
1548 1548 1549 1549 1550 1550 1551 1551 1551 1551 1551 1551 1550 1550 1550 1549 1549 1549 1549 1548 1548 1547 1547 1547 1547 1547 1547 1547 1547 1547 1547 1546 1546 1546 1545 1545 1544 1544 1543 1543 1542 1542 1542
1548 1549 1550 1550 1551 1551 1551 1552 1552 1552 1552 1552 1551 1552 1551 1551 1550 1550 1550 1549 1549 1549 1548 1548 1549 1548 1548 1548 1548 1548 1548 1548 1548 1547 1547 1546 1545 1545 1544 1543 1543 1543 1542
1548 1549 1550 1551 1552 1552 1553 1553 1553 1553 1553 1553 1553 1553 1552 1552 1551 1551 1551 1551 1551 1550 1550 1550 1550 1550 1550 1550 1550 1549 1549 1549 1549 1549 1549 1548 1546 1545 1545 1544 1544 1543 1543
1548 1549 1550 1551 1552 1553 1553 1554 1554 1554 1554 1554 1554 1554 1553 1553 1553 1552 1552 1552 1552 1552 1552 1552 1552 1552 1551 1551 1551 1551 1551 1551 1551 1551 1550 1549 1548 1547 1546 1545 1544 1543 1543
1548 1549 1550 1551 1552 1553 1554 1554 1554 1555 1555 1555 1555 1554 1554 1554 1554 1553 1553 1553 1553 1553 1553 1553 1553 1553 1553 1553 1553 1553 1553 1552 1552 1552 1552 1551 1550 1548 1547 1545 1543 1542 1543
1548 1549 1551 1552 1553 1553 1554 1554 1555 1555 1555 1555 1555 1555 1555 1555 1555 1555 1554 1554 1554 1554 1554 1555 1555 1555 1555 1555 1554 1554 1554 1554 1553 1553 1553 1552 1551 1550 1548 1546 1543 1542 1543
1548 1549 1551 1552 1553 1554 1555 1555 1556 1556 1556 1556 1556 1556 1556 1556 1556 1555 1555 1555 1555 1555 1555 1556 1555 1555 1556 1556 1556 1556 1555 1555 1555 1554 1554 1553 1552 1551 1550 1548 1546 1545 1545
1548 1549 1550 1552 1553 1554 1555 1556 1556 1557 1557 1557 1557 1557 1556 1557 1556 1556 1556 1556 1556 1556 1556 1557 1557 1557 1557 1557 1558 1558 1558 1557 1556 1556 1555 1555 1554 1553 1552 1550 1549 1548 1548
1548 1549 1550 1552 1553 1554 1555 1556 1556 1557 1557 1557 1557 1557 1557 1557 1557 1557 1557 1557 1557 1557 1557 1557 1557 1558 1558 1558 1559 1559 1559 1560 1558 1558 1557 1556 1555 1554 1553 1552 1551 1551 1550
1547 1548 1550 1551 1553 1554 1554 1556 1556 1557 1557 1558 1558 1557 1557 1557 1557 1558 1558 1558 1558 1558 1558 1558 1558 1558 1558 1558 1558 1560 1559 1559 1560 1560 1558 1558 1556 1555 1555 1554 1553 1552 1552
1546 1547 1549 1551 1552 1553 1554 1555 1556 1557 1558 1558 1558 1558 1558 1558 1558 1558 1558 1559 1559 1559 1559 1559 1559 1559 1559 1559 1558 1558 1560 1559 1560 1561 1561 1559 1558 1557 1556 1555 1555 1554 1554
1545 1546 1548 1550 1551 1552 1553 1554 1555 1557 1557 1557 1558 1558 1558 1558 1558 1558 1559 1559 1559 1559 1559 1559 1559 1559 1559 1559 1559 1559 1559 1559 1560 1561 1561 1561 1560 1559 1558 1557 1556 1556 1555
1543 1545 1547 1549 1550 1551 1552 1553 1555 1556 1556 1557 1558 1558 1558 1558 1558 1559 1559 1559 1560 1560 1560 1560 1560 1560 1559 1559 1559 1560 1560 1560 1561 1561 1561 1561 1561 1560 1559 1558 1557 1557 1556